Weather History for KFSO - July, 2013

Change the Weather History Date:

Tuesday, July 16, 2013

  Actual Average (KPBG) Record (KPBG)
Temperature  
Mean Temperature 80 °F 70 °F  
Max Temperature 91 °F 80 °F 95 °F (1968)
Min Temperature 69 °F 59 °F 42 °F (1960)
Cooling Degree Days 14 5  
Month to date cooling degree days 74  
Year to date cooling degree days 144  
Since 1 June cooling degree days 136  
Growing Degree Days 30 (Base 50)    
Moisture  
Dew Point 66 °F    
Average Humidity 66    
Maximum Humidity 90    
Minimum Humidity 39    
Precipitation  
Precipitation 0.00 in - 0.95 in (1984)
Month to date precipitation  
Year to date precipitation  
Sea Level Pressure  
Sea Level Pressure 30.19 in    
Wind  
Wind Speed 1 mph (NNW)    
Max Wind Speed 8 mph    
Max Gust Speed -    
Visibility 9 miles    
Events      
T = Trace of Precipitation, MM = Missing Value Source: NWS Daily Summary

Daily Weather History Graph

Daily Weather History Graph

Search for Another Location

Airport or City:

Trip Planner

Search our weather history database for the weather conditions in past years. The results will help you decide how hot, cold, wet, or windy it might be!

Date:

Astronomy

Jul. 16, 2013 Rise Set
Actual Time 5:21 AM EDT 8:35 PM EDT
Civil Twilight 4:45 AM EDT 9:10 PM EDT
Nautical Twilight 3:59 AM EDT 9:56 PM EDT
Astronomical Twilight 3:02 AM EDT 10:53 PM EDT
Moon 2:07 PM EDT (7/16) No Moon Set
Length of Visible Light 16h 25m
Length of Day
15h 13m
First Quarter, 56% of the Moon is Illuminated
Jul 16
First Quarter
Jul 22
Full
Jul 29
Last Quarter
Aug 6
New
Aug 14
First Quarter

Hourly Weather History & Observations

Time (EDT) Temp. Heat Index Dew Point Humidity Pressure Visibility Wind Dir Wind Speed Gust Speed Precip Events Conditions
12:15 AM 75.9 °F - 67.3 °F 74% 30.17 in 10.0 mi Calm Calm - N/A   Overcast
12:35 AM 74.5 °F - 66.2 °F 75% 30.17 in 10.0 mi Calm Calm - N/A   Scattered Clouds
12:55 AM 74.5 °F - 66.2 °F 75% 30.17 in 10.0 mi Calm Calm - N/A   Clear
1:15 AM 74.5 °F - 66.6 °F 76% 30.16 in 10.0 mi Calm Calm - N/A   Clear
1:35 AM 72.9 °F - 66.7 °F 81% 30.17 in 10.0 mi Calm Calm - N/A   Clear
1:55 AM 74.5 °F - 68.7 °F 82% 30.17 in 10.0 mi Calm Calm - N/A   Clear
2:15 AM 74.5 °F - 67.5 °F 79% 30.17 in 10.0 mi Calm Calm - N/A   Clear
2:35 AM 72.0 °F - 66.7 °F 84% 30.17 in 10.0 mi Calm Calm - N/A   Clear
2:55 AM 70.3 °F - 65.5 °F 85% 30.17 in 10.0 mi Calm Calm - N/A   Clear
3:15 AM 70.0 °F - 65.8 °F 87% 30.17 in 10.0 mi Calm Calm - N/A   Clear
3:35 AM 69.4 °F - 65.5 °F 87% 30.17 in 7.0 mi Calm Calm - N/A   Clear
3:55 AM 69.4 °F - 65.5 °F 87% 30.17 in 7.0 mi Calm Calm - N/A   Clear
4:15 AM 69.4 °F - 66.0 °F 89% 30.17 in 7.0 mi Calm Calm - N/A   Clear
4:35 AM 69.4 °F - 66.2 °F 89% 30.17 in 7.0 mi Calm Calm - N/A   Clear
4:55 AM 69.4 °F - 66.2 °F 89% 30.18 in 5.0 mi Calm Calm - N/A   Clear
5:15 AM 69.4 °F - 66.4 °F 90% 30.18 in 7.0 mi Calm Calm - N/A   Clear
5:35 AM 69.4 °F - 66.4 °F 90% 30.18 in 4.0 mi Calm Calm - N/A   Clear
5:55 AM 69.4 °F - 66.4 °F 90% 30.19 in 3.0 mi Calm Calm - N/A   Clear
6:15 AM 69.4 °F - 66.4 °F 90% 30.20 in 7.0 mi Calm Calm - N/A   Clear
6:35 AM 69.4 °F - 66.4 °F 90% 30.20 in 7.0 mi Calm Calm - N/A   Clear
6:55 AM 72.0 °F - 68.4 °F 88% 30.20 in 5.0 mi Calm Calm - N/A   Clear
7:15 AM 74.5 °F - 70.0 °F 86% 30.21 in 7.0 mi Calm Calm - N/A   Clear
7:35 AM 74.8 °F - 68.2 °F 80% 30.21 in 10.0 mi Calm Calm - N/A   Clear
7:55 AM 77.0 °F - 67.5 °F 72% - 10.0 mi Calm Calm - N/A   Clear
8:15 AM 77.0 °F - 65.8 °F 68% 30.22 in 10.0 mi North 4.6 mph - N/A   Clear
8:35 AM 78.8 °F - 66.9 °F 67% 30.22 in 10.0 mi NW 3.5 mph - N/A   Clear
8:55 AM 79.7 °F - 66.4 °F 64% 30.23 in 10.0 mi Calm Calm - N/A   Clear
9:15 AM 79.7 °F - 65.5 °F 62% 30.23 in 10.0 mi NW 3.5 mph - N/A   Clear
9:35 AM 79.9 °F - 66.0 °F 62% 30.23 in 10.0 mi NW 4.6 mph - N/A   Clear
9:55 AM 80.6 °F 82.7 °F 65.8 °F 61% 30.23 in 10.0 mi NNW 3.5 mph - N/A   Clear
10:15 AM 82.0 °F 84.1 °F 65.8 °F 58% 30.23 in 10.0 mi WNW 3.5 mph - N/A   Clear
10:35 AM 82.4 °F 84.1 °F 64.9 °F 55% 30.23 in 10.0 mi North 3.5 mph - N/A   Clear
10:55 AM 83.1 °F 84.4 °F 63.7 °F 52% 30.23 in 10.0 mi NW 5.8 mph - N/A   Clear
11:15 AM 83.8 °F 85.3 °F 64.6 °F 52% 30.23 in 10.0 mi NNW 3.5 mph - N/A   Clear
11:35 AM 84.2 °F 86.3 °F 65.7 °F 54% 30.22 in 10.0 mi NNW 5.8 mph - N/A   Clear
11:55 AM 86.9 °F 89.9 °F 67.1 °F 52% 30.22 in 10.0 mi North 5.8 mph - N/A   Clear
12:15 PM 87.1 °F 89.2 °F 65.8 °F 49% 30.22 in 10.0 mi North 3.5 mph - N/A   Clear
12:35 PM 89.1 °F 92.1 °F 67.1 °F 48% 30.22 in 10.0 mi North 4.6 mph - N/A   Clear
12:55 PM 89.6 °F 93.0 °F 67.5 °F 48% 30.22 in 10.0 mi NW 3.5 mph - N/A   Clear
1:15 PM 89.4 °F 92.3 °F 66.7 °F 47% 30.21 in 10.0 mi NW 4.6 mph - N/A   Clear
1:35 PM 89.6 °F 91.8 °F 65.7 °F 45% 30.21 in 10.0 mi North 5.8 mph - N/A   Clear
1:55 PM 89.6 °F 92.2 °F 66.0 °F 46% 30.20 in 10.0 mi NNE 8.1 mph - N/A   Clear
2:15 PM 89.6 °F 91.8 °F 65.5 °F 45% 30.20 in 10.0 mi NNW 5.8 mph - N/A   Clear
2:35 PM 89.6 °F 90.4 °F 63.3 °F 41% 30.20 in 10.0 mi NW 3.5 mph - N/A   Clear
2:55 PM 89.6 °F 90.4 °F 62.8 °F 41% 30.20 in 10.0 mi NW 5.8 mph - N/A   Clear
3:15 PM 89.6 °F 89.8 °F 61.7 °F 39% 30.19 in 10.0 mi NNE 5.8 mph - N/A   Clear
3:35 PM 90.1 °F 90.6 °F 62.2 °F 39% 30.19 in 10.0 mi Calm Calm - N/A   Clear
3:55 PM 90.7 °F 92.4 °F 64.4 °F 42% 30.19 in 10.0 mi North 3.5 mph - N/A   Clear
4:55 PM 89.6 °F 90.1 °F 62.4 °F 40% 30.18 in 10.0 mi Calm Calm - N/A   Clear
5:15 PM 89.6 °F 90.1 °F 62.6 °F 40% 30.18 in 10.0 mi NW 4.6 mph - N/A   Clear
5:35 PM 89.6 °F 89.8 °F 61.5 °F 39% 30.17 in 10.0 mi NNW 4.6 mph - N/A   Clear
5:55 PM 89.6 °F 90.4 °F 63.1 °F 41% 30.17 in 10.0 mi Calm Calm - N/A   Clear
6:15 PM 89.6 °F 90.8 °F 63.9 °F 42% 30.17 in 10.0 mi Calm Calm - N/A   Clear
6:35 PM 89.6 °F 90.8 °F 63.9 °F 42% 30.17 in 10.0 mi Calm Calm - N/A   Clear
6:55 PM 89.6 °F 91.8 °F 65.7 °F 45% 30.16 in 10.0 mi Calm Calm - N/A   Clear
7:15 PM 86.2 °F 88.4 °F 66.4 °F 51% 30.16 in 10.0 mi Calm Calm - N/A   Clear
7:35 PM 82.4 °F 84.2 °F 65.1 °F 56% 30.16 in 10.0 mi Calm Calm - N/A   Clear
7:55 PM 81.0 °F 82.9 °F 65.3 °F 59% 30.16 in 10.0 mi Calm Calm - N/A   Clear
8:15 PM 79.7 °F - 64.4 °F 59% 30.16 in 10.0 mi Calm Calm - N/A   Clear
8:35 PM 79.7 °F - 66.2 °F 63% 30.16 in 10.0 mi Calm Calm - N/A   Clear
8:55 PM 77.2 °F - 66.4 °F 69% 30.17 in 10.0 mi Calm Calm - N/A   Clear
9:15 PM 77.0 °F - 67.6 °F 73% 30.17 in 10.0 mi Calm Calm - N/A   Clear
9:35 PM 77.0 °F - 68.4 °F 75% 30.17 in 10.0 mi Calm Calm - N/A   Scattered Clouds
9:55 PM 75.2 °F - 68.5 °F 80% 30.18 in 10.0 mi Calm Calm - N/A   Clear
10:15 PM 74.5 °F - 68.7 °F 82% 30.18 in 10.0 mi SE 4.6 mph - N/A   Clear
10:35 PM 80.8 °F 82.2 °F 63.9 °F 56% 30.17 in 10.0 mi SSE 4.6 mph - N/A   Clear
10:55 PM 74.5 °F - 67.6 °F 79% 30.17 in 10.0 mi Calm Calm - N/A   Clear
11:15 PM 74.5 °F - 68.7 °F 82% 30.17 in 10.0 mi Calm Calm - N/A   Clear
11:35 PM 74.5 °F - 68.4 °F 81% 30.18 in 7.0 mi SE 4.6 mph - N/A   Clear
11:55 PM 74.5 °F - 68.4 °F 81% 30.18 in 10.0 mi SE 3.5 mph - N/A   Mostly Cloudy